Wind_Speed
29 29 29 29 30 31 33 33 30 28 29 30 31 31 31 30 29 29 28 28 27 27 27 29 30 29 28 27 19 22 20 17 13 14 14 12 14 5 7 7 19 26 12 14 22 22 23
28 28 29 29 30 29 30 30 32 33 30 30 31 30 30 31 31 30 29 28 27 29 27 28 31 30 30 30 17 21 20 16 15 15 14 14 14 5 11 19 21 15 19 16 21 24 27
28 28 28 29 29 29 30 30 31 32 32 32 32 33 31 29 29 30 30 29 28 28 28 28 30 33 31 24 18 24 22 16 16 15 15 11 9 10 11 17 13 16 16 21 23 25 23
28 29 28 28 29 30 29 30 32 31 32 32 32 34 34 33 31 30 29 27 28 29 29 29 30 35 34 25 23 22 23 19 18 18 15 13 6 16 20 19 17 19 17 23 17 21 14
29 29 30 30 30 30 30 30 31 30 31 31 32 34 35 35 34 33 30 27 26 29 29 30 29 35 31 25 17 17 22 22 17 18 16 17 13 22 22 12 15 14 26 23 25 16 6
31 31 31 31 31 32 31 30 30 30 30 31 31 32 33 35 35 34 32 28 26 30 29 31 31 33 21 19 21 16 15 20 21 18 19 19 21 21 20 15 22 15 19 14 17 12 11
32 32 32 33 32 32 32 32 31 30 30 30 31 31 31 32 31 33 32 28 27 29 34 32 28 30 20 19 23 12 12 17 21 23 22 18 21 27 21 17 15 18 21 24 13 10 9
35 34 34 35 35 35 35 34 33 32 31 31 30 30 29 27 25 28 30 25 24 30 40 37 34 38 27 21 29 23 14 20 27 30 22 20 35 24 16 15 22 28 17 15 15 10 5
37 36 37 37 38 38 37 36 36 34 33 32 33 31 30 29 24 20 21 22 25 28 39 50 38 38 27 31 36 28 22 24 27 30 29 32 30 19 16 14 21 16 12 15 14 15 10
38 39 39 40 40 40 39 38 36 36 34 32 30 31 30 29 28 17 17 18 23 26 24 45 35 37 30 31 42 29 30 28 32 32 30 33 29 24 27 24 18 15 12 17 13 10 10
40 41 42 42 42 42 42 41 39 36 33 31 29 28 28 27 22 12 16 11 15 14 5 11 11 14 8 27 25 22 33 33 37 33 29 37 25 31 28 25 17 20 16 13 12 13 16
43 43 43 43 43 43 42 41 41 39 36 33 31 29 30 27 20 14 9 10 12 10 12 6 15 19 18 18 23 15 29 38 34 33 34 30 28 28 30 23 19 17 18 16 15 13 11
43 43 42 41 40 40 40 40 39 38 38 38 36 33 32 30 18 19 14 19 15 14 14 20 13 17 19 22 19 22 18 45 40 32 40 37 36 29 28 27 24 19 18 3 5 3 7
42 40 39 37 37 36 36 36 36 36 36 36 37 37 36 32 21 21 20 23 18 35 44 11 10 10 20 22 24 28 29 36 47 36 21 32 25 36 30 32 25 23 23 11 6 2 4
38 37 36 36 36 37 37 37 37 38 38 37 37 37 38 33 22 25 24 32 42 49 26 40 24 26 23 15 19 24 39 36 40 49 35 27 27 19 33 26 27 22 23 25 4 3 4
37 37 38 39 40 40 40 40 40 40 39 37 36 33 39 26 19 30 34 50 53 45 36 22 23 17 24 11 19 26 26 36 35 41 45 30 18 31 28 30 27 32 17 22 23 7 5
39 40 41 41 41 41 41 41 40 39 36 31 29 33 41 25 24 34 54 51 37 49 35 36 37 38 37 33 24 22 21 28 27 32 39 44 25 23 26 36 34 29 29 23 14 14 6
42 43 43 44 45 43 42 39 37 36 33 28 32 38 38 29 38 47 59 49 50 34 29 38 39 35 32 31 34 26 33 24 25 23 41 40 27 29 33 19 40 36 33 29 20 12 12
46 46 48 46 42 41 40 38 39 37 32 33 38 41 38 32 49 56 45 39 48 43 39 38 32 40 38 34 25 18 25 21 21 31 38 31 32 24 25 29 31 41 31 27 26 28 27
49 49 45 42 41 40 39 39 39 37 36 35 40 40 44 45 50 44 47 49 44 42 41 39 39 31 35 32 27 34 12 21 23 25 31 37 29 33 26 22 16 32 35 32 27 30 28
48 45 44 43 41 40 41 42 42 41 40 39 46 53 43 44 56 50 45 44 46 42 35 37 43 37 38 30 29 34 20 14 16 28 26 21 35 38 32 32 26 28 28 27 30 32 24
47 46 44 43 42 43 45 45 46 43 39 45 54 60 44 53 34 56 54 45 36 24 31 36 42 38 37 37 27 31 25 19 15 20 35 30 25 33 31 28 35 30 26 33 33 33 29
48 49 49 48 48 49 49 49 49 48 44 53 58 61 38 46 50 43 57 58 45 33 28 28 33 35 41 46 21 28 29 18 13 14 26 38 26 18 32 27 24 32 34 28 30 28 27
39 40 40 41 44 47 48 48 48 51 53 58 63 61 61 47 45 56 40 43 49 43 35 31 29 28 31 35 25 26 35 26 18 28 20 33 38 21 19 26 15 16 28 23 25 29 20
42 42 42 41 40 38 39 43 46 46 50 60 65 67 70 71 32 38 48 30 25 32 47 34 31 26 25 22 31 25 29 36 30 28 24 26 29 15 16 29 18 29 25 19 20 29 26
38 39 40 40 42 44 45 42 44 51 49 60 64 69 66 60 64 27 36 35 37 40 36 42 30 28 21 28 29 22 13 15 8 5 24 23 22 18 9 8 9 23 25 20 18 27 20
40 41 42 43 44 44 44 46 46 50 53 56 60 66 66 62 58 51 31 31 24 28 32 33 35 26 32 27 34 29 28 21 12 8 16 25 35 20 14 7 14 9 28 17 21 15 20
41 43 44 46 48 48 48 48 48 50 57 55 58 62 67 64 57 57 40 25 31 31 32 28 27 29 34 34 31 27 26 26 23 22 17 18 20 24 21 8 9 12 14 29 28 28 24
34 35 35 37 38 40 44 47 48 51 50 53 54 57 60 65 44 44 48 39 28 29 31 31 28 27 31 34 38 24 23 18 29 30 24 19 19 17 21 18 11 14 21 16 13 16 18
Wind_Direction
275 273 272 271 269 267 269 275 279 276 276 275 276 275 275 277 276 277 276 275 274 274 275 278 278 278 276 271 273 261 271 268 266 266 258 255 245 213 249 291 300 295 307 276 280 296 295
274 274 274 271 272 270 270 267 262 275 272 272 273 274 275 275 276 275 277 279 278 277 275 274 275 276 276 274 281 274 269 257 255 255 250 245 248 196 266 283 281 298 300 295 283 285 290
274 273 274 272 272 271 272 272 271 269 264 269 269 272 271 273 276 277 277 278 280 280 280 279 276 274 270 283 275 272 272 274 254 246 237 240 230 223 259 262 258 276 290 276 278 283 297
273 275 275 276 275 275 273 270 270 269 269 268 267 268 269 271 271 272 276 278 279 279 280 279 279 278 272 276 266 263 264 261 252 247 224 213 196 259 259 246 258 273 275 277 295 289 291
274 275 277 279 282 280 278 277 273 271 271 270 267 267 267 267 266 267 270 274 278 277 278 277 278 278 281 277 280 258 246 251 242 236 226 195 209 240 246 246 279 273 273 278 297 292 290
273 276 278 279 278 277 278 277 277 277 275 273 272 271 268 266 264 263 264 267 270 274 272 273 271 277 278 261 264 245 243 236 233 225 221 216 219 241 239 222 248 254 264 299 289 306 253
272 275 277 277 277 276 275 275 276 276 276 275 273 271 270 270 268 267 262 260 267 268 264 265 260 263 266 269 263 241 234 223 222 220 225 223 229 229 232 222 246 282 283 283 286 276 261
271 272 274 274 274 273 273 274 273 274 275 278 280 283 284 283 275 268 264 256 264 272 273 265 265 268 262 247 254 250 218 217 216 223 212 225 239 238 244 239 253 269 275 296 269 313 278
268 270 271 271 271 271 270 269 271 273 274 275 278 281 286 290 294 289 276 252 243 254 267 270 266 267 267 251 248 242 218 223 227 218 210 222 237 236 225 248 263 263 264 271 289 294 284
265 267 269 270 269 268 266 264 262 262 265 269 271 274 278 282 286 302 282 255 238 252 281 276 282 274 255 244 249 236 228 208 227 224 214 225 241 237 244 242 254 251 246 268 283 308 306
268 269 269 269 268 266 265 263 261 260 260 261 263 266 268 271 277 296 284 242 226 254 292 267 248 254 213 227 241 242 223 203 223 219 212 223 225 241 242 246 234 248 262 295 282 293 299
267 267 266 265 264 263 262 260 259 255 255 256 258 261 264 264 261 252 256 197 193 188 242 237 225 228 231 237 225 208 202 210 211 229 223 234 232 234 241 246 238 244 260 269 285 276 278
264 264 264 263 261 260 259 258 257 256 253 253 257 260 261 258 251 244 219 192 199 219 235 246 231 230 220 241 234 191 192 200 200 210 228 223 231 241 236 243 243 224 242 279 298 246 227
262 262 261 260 259 259 259 257 256 255 254 253 254 257 259 256 242 232 212 196 222 234 224 190 197 263 225 220 238 210 205 214 212 209 224 224 233 224 223 232 230 227 226 206 201 207 349
260 258 257 255 255 255 255 255 256 256 256 257 258 257 256 252 232 216 210 210 221 230 237 243 245 296 239 229 225 231 222 221 223 210 215 214 231 226 229 234 217 223 224 220 202 175 357
258 256 256 257 256 256 255 254 253 254 256 257 255 255 255 247 227 209 211 228 235 243 242 227 266 273 288 265 225 231 232 233 224 226 213 228 238 232 234 227 226 221 221 216 234 162 213
260 260 262 261 261 258 256 254 250 248 247 243 237 237 248 229 216 213 220 223 247 242 238 245 262 265 281 288 299 266 233 240 225 223 218 224 236 237 231 224 215 219 226 234 257 244 179
265 266 266 265 265 259 256 250 241 233 231 219 223 229 235 217 206 222 232 228 238 237 244 248 248 253 261 274 298 301 250 230 222 222 214 221 225 246 240 245 229 223 224 222 225 244 248
268 268 268 266 260 256 250 241 231 225 224 218 223 228 237 224 220 224 230 240 243 242 240 240 244 245 243 287 298 278 257 229 236 223 205 195 215 252 262 258 228 211 215 222 234 242 255
268 268 264 260 256 251 242 235 231 231 225 218 220 224 225 227 232 230 231 237 242 246 242 241 242 246 239 265 275 277 271 241 243 221 210 210 219 220 244 255 229 202 213 220 228 236 243
265 260 259 257 250 246 241 235 233 231 222 213 218 225 221 218 226 230 234 239 244 241 247 243 244 242 230 246 280 276 277 257 209 221 194 205 221 218 247 242 225 234 223 224 231 242 233
262 259 256 251 245 241 237 235 232 229 216 214 220 219 223 225 228 225 229 230 234 243 238 241 240 244 237 240 261 281 274 303 225 214 216 217 235 229 250 248 228 240 240 238 230 241 236
259 258 255 250 246 241 237 235 232 228 214 215 218 223 221 233 225 230 225 228 230 228 236 238 241 245 244 228 258 275 267 271 249 223 228 216 220 232 246 249 243 252 233 238 234 241 246
266 262 259 255 251 248 244 240 235 229 220 215 220 220 217 223 231 228 235 233 230 229 232 221 235 251 236 231 256 273 273 277 217 211 212 221 213 235 229 245 241 248 234 244 242 242 251
269 264 258 250 244 238 237 233 222 221 215 215 219 220 220 220 227 228 227 228 233 237 232 231 220 236 264 252 240 261 281 285 294 211 196 209 207 204 201 225 239 234 235 243 244 248 258
267 262 257 253 248 242 236 226 224 218 216 215 218 224 224 220 219 223 221 226 232 238 241 226 221 222 227 236 233 245 254 278 261 242 195 194 201 205 230 230 236 248 223 233 250 249 244
265 261 256 252 248 243 237 231 221 215 209 213 219 221 223 224 224 216 216 214 226 231 234 223 221 217 210 223 233 236 232 236 278 245 204 212 217 223 248 268 237 265 234 215 250 252 245
266 264 258 253 248 244 236 229 223 212 212 207 219 219 219 225 226 219 220 210 213 219 223 226 222 219 220 226 228 233 235 234 248 249 235 203 196 215 233 243 240 180 199 217 245 252 253
269 262 256 248 238 233 224 221 215 209 207 212 210 221 218 221 230 216 209 215 207 210 214 217 225 216 221 217 223 228 225 230 229 231 235 225 220 206 210 231 209 231 228 208 237 241 238
Height
3113 3113 3114 3114 3114 3114 3115 3115 3116 3116 3116 3116 3117 3117 3117 3117 3118 3119 3118 3118 3118 3117 3117 3118 3116 3115 3117 3117 3120 3119 3119 3120 3119 3120 3121 3122 3122 3122 3122 3123 3122 3122 3120 3121 3119 3116 3113
3106 3106 3107 3106 3108 3106 3107 3108 3109 3110 3110 3109 3110 3110 3111 3111 3111 3112 3113 3113 3113 3112 3112 3111 3109 3109 3110 3111 3114 3113 3114 3115 3115 3115 3117 3119 3120 3120 3121 3122 3121 3119 3118 3117 3115 3114 3111
3099 3099 3099 3100 3099 3100 3099 3100 3101 3102 3102 3102 3102 3103 3103 3104 3105 3105 3106 3107 3107 3106 3106 3105 3103 3101 3103 3109 3109 3108 3108 3110 3112 3111 3112 3117 3118 3119 3119 3117 3116 3115 3115 3113 3111 3111 3109
3091 3091 3091 3091 3092 3092 3092 3092 3093 3093 3094 3093 3093 3094 3095 3096 3097 3098 3099 3101 3102 3100 3101 3098 3098 3093 3095 3102 3101 3103 3104 3105 3107 3107 3109 3113 3114 3116 3115 3115 3113 3113 3113 3109 3107 3108 3107
3083 3083 3083 3083 3083 3083 3084 3084 3085 3085 3085 3085 3086 3086 3087 3089 3089 3091 3092 3094 3096 3094 3094 3092 3093 3087 3092 3094 3094 3096 3098 3099 3102 3103 3104 3109 3111 3111 3112 3112 3112 3109 3108 3107 3103 3104 3106
3075 3075 3076 3075 3075 3076 3076 3076 3077 3077 3078 3078 3078 3078 3078 3080 3081 3083 3084 3087 3090 3086 3086 3086 3086 3086 3088 3089 3088 3091 3091 3094 3097 3099 3101 3104 3106 3106 3107 3108 3106 3104 3104 3103 3103 3103 3102
3066 3067 3067 3068 3067 3067 3068 3068 3069 3069 3070 3071 3071 3071 3072 3072 3074 3074 3077 3082 3084 3081 3076 3079 3079 3078 3081 3084 3084 3084 3087 3089 3092 3094 3095 3100 3101 3097 3100 3102 3102 3102 3103 3102 3102 3101 3101
3058 3058 3058 3059 3059 3059 3059 3060 3061 3062 3062 3062 3063 3064 3064 3065 3067 3067 3069 3075 3077 3073 3063 3067 3070 3065 3075 3080 3074 3081 3083 3085 3086 3086 3091 3099 3088 3094 3098 3099 3100 3102 3100 3099 3099 3099 3099
3048 3048 3048 3049 3050 3050 3051 3052 3053 3053 3054 3056 3056 3057 3058 3058 3060 3063 3065 3067 3067 3065 3057 3048 3059 3059 3067 3068 3066 3074 3077 3079 3080 3083 3084 3087 3085 3093 3095 3095 3096 3098 3098 3098 3097 3096 3096
3037 3038 3039 3039 3040 3041 3042 3044 3046 3048 3049 3050 3052 3052 3053 3054 3058 3060 3059 3062 3065 3063 3060 3041 3049 3043 3051 3056 3049 3066 3069 3075 3076 3076 3081 3082 3085 3089 3091 3091 3094 3095 3095 3096 3095 3094 3093
3025 3026 3027 3028 3029 3031 3032 3034 3036 3039 3042 3044 3046 3047 3048 3049 3053 3058 3055 3059 3062 3066 3066 3046 3041 3040 3042 3043 3050 3055 3061 3065 3067 3070 3077 3071 3079 3081 3084 3088 3090 3091 3093 3093 3092 3092 3092
3013 3014 3016 3017 3018 3019 3021 3024 3027 3030 3033 3036 3039 3041 3041 3045 3050 3052 3053 3057 3060 3067 3048 3036 3036 3034 3038 3040 3045 3050 3052 3057 3064 3069 3070 3070 3075 3078 3080 3084 3086 3089 3090 3089 3090 3091 3090
3001 3002 3003 3004 3006 3008 3010 3013 3016 3020 3023 3027 3030 3033 3035 3037 3047 3045 3049 3054 3059 3050 3035 3029 3033 3035 3037 3037 3040 3044 3047 3050 3052 3060 3060 3065 3066 3072 3077 3080 3082 3084 3087 3088 3090 3089 3087
2988 2990 2992 2994 2995 2998 3000 3003 3006 3010 3014 3018 3021 3024 3026 3029 3039 3039 3043 3048 3045 3022 3024 3026 3031 3033 3033 3036 3035 3040 3042 3044 3047 3052 3056 3059 3059 3062 3067 3072 3076 3078 3082 3085 3090 3088 3084
2976 2978 2981 2984 2986 2989 2992 2994 2997 3000 3004 3008 3012 3013 3015 3022 3030 3032 3036 3036 3019 3015 3024 3026 3025 3030 3031 3032 3035 3036 3034 3037 3039 3044 3052 3053 3052 3059 3063 3068 3072 3074 3075 3080 3082 3082 3086
2965 2967 2970 2973 2976 2978 2981 2985 2988 2992 2995 2999 3001 3004 3005 3015 3022 3023 3026 3010 3005 3012 3023 3028 3028 3028 3027 3030 3031 3032 3033 3029 3034 3040 3047 3049 3052 3054 3059 3064 3065 3067 3074 3077 3078 3083 3085
2952 2955 2957 2960 2962 2966 2969 2973 2977 2982 2986 2992 2994 2994 2992 3007 3013 3012 2997 2995 3003 3011 3020 3024 3025 3024 3023 3024 3027 3027 3027 3027 3030 3034 3042 3047 3048 3048 3052 3051 3056 3063 3065 3069 3072 3072 3073
2939 2941 2943 2946 2949 2952 2956 2960 2966 2972 2977 2981 2985 2983 2987 2998 3000 2992 2982 2993 2999 3005 3013 3017 3019 3019 3020 3022 3024 3019 3017 3023 3025 3026 3030 3037 3041 3045 3043 3047 3050 3054 3057 3063 3065 3067 3066
2925 2927 2928 2931 2934 2938 2942 2948 2954 2959 2965 2972 2973 2976 2979 2987 2980 2977 2984 2988 2991 2997 3003 3006 3010 3013 3015 3017 3022 3015 3015 3016 3022 3021 3023 3029 3037 3044 3041 3040 3040 3043 3051 3055 3059 3063 3061
2910 2912 2913 2916 2920 2924 2929 2935 2941 2948 2955 2962 2966 2968 2971 2971 2969 2976 2981 2980 2982 2987 2993 2999 2999 3007 3011 3015 3019 3009 3008 3011 3016 3018 3019 3027 3032 3035 3035 3036 3039 3039 3043 3048 3053 3054 3056
2893 2895 2898 2901 2905 2910 2916 2922 2929 2936 2943 2951 2953 2949 2952 2954 2958 2967 2971 2971 2977 2982 2989 2995 2992 2997 3003 3011 3011 3008 3008 3005 3011 3014 3016 3020 3022 3030 3031 3032 3035 3036 3038 3042 3044 3048 3049
2877 2879 2882 2886 2890 2896 2902 2909 2916 2924 2932 2938 2937 2938 2943 2950 2955 2959 2960 2962 2971 2978 2983 2985 2987 2991 2997 3002 3009 3003 3002 3002 3004 3009 3011 3013 3016 3023 3025 3026 3028 3033 3033 3035 3038 3041 3043
2860 2862 2866 2870 2874 2880 2886 2893 2901 2910 2918 2920 2924 2930 2940 2938 2944 2948 2945 2955 2964 2975 2979 2982 2983 2986 2989 2994 3004 3002 3002 3000 3000 3002 3007 3010 3014 3018 3018 3021 3022 3020 3026 3029 3033 3035 3037
2844 2846 2849 2853 2858 2863 2869 2876 2884 2894 2900 2908 2911 2921 2930 2925 2929 2933 2945 2954 2961 2968 2971 2974 2979 2982 2985 2997 2997 2999 2999 2995 2995 2997 3000 3004 3007 3014 3016 3022 3016 3014 3019 3024 3027 3030 3032
2829 2831 2833 2837 2842 2847 2854 2861 2869 2878 2886 2893 2900 2905 2908 2914 2927 2933 2941 2948 2958 2960 2961 2968 2975 2982 2989 2995 2998 2996 2991 2989 2988 2989 2993 2997 3003 3006 3009 3013 3011 3011 3015 3020 3021 3025 3027
2813 2815 2817 2821 2825 2831 2838 2845 2854 2863 2873 2882 2889 2895 2905 2914 2914 2931 2937 2943 2947 2952 2958 2962 2972 2979 2985 2988 2993 2991 2996 2995 2988 2985 2989 2994 2998 3002 3004 3003 2999 3003 3012 3016 3018 3016 3021
2799 2800 2802 2806 2810 2815 2822 2830 2839 2849 2861 2870 2877 2887 2899 2903 2914 2927 2929 2935 2945 2947 2950 2960 2965 2971 2976 2978 2983 2988 2989 2990 2990 2988 2988 2990 2992 2994 3001 3000 2997 3001 3006 3013 3012 3016 3017
2783 2783 2784 2787 2791 2798 2806 2815 2825 2837 2849 2858 2869 2877 2888 2896 2904 2917 2924 2932 2937 2943 2947 2954 2964 2964 2967 2971 2973 2976 2979 2983 2986 2986 2986 2985 2990 2993 2999 2998 2997 3000 3003 3005 3008 3010 3013
2766 2765 2766 2770 2774 2781 2790 2800 2812 2825 2838 2850 2860 2868 2882 2892 2898 2909 2916 2929 2933 2939 2944 2950 2954 2958 2961 2963 2965 2969 2975 2976 2978 2979 2983 2984 2986 2988 2991 2989 2992 2997 2998 2997 3001 3005 3007